FW4614 Weather Reports


time (UTC)temp
F
wind
direction
speed
knots
gust
knots
rain 1hr
in
rain 24hr
in
rain mn
in
humidity
%
barometer
mb
20260906114313 0 0.0 0.0 0.00 0.00 0.00 1012.4
20260906113728 0 0.0 0.0 0.00 0.00 0.00 1012.5
20260906113204 0 0.0 0.0 0.00 0.00 0.00 1012.8
20260906112616 0 0.0 0.0 0.00 0.00 0.00 1012.6
20260906112108 0 0.0 0.0 0.00 0.00 0.00 1012.6
20260906111608 0 0.0 0.0 0.00 0.00 0.00 1013.0
20260906111106 0 0.0 0.0 0.00 0.00 0.00 1013.0
20260906110515 0 0.0 0.0 0.00 0.00 0.00 1013.1
20260906110012 0 0.0 0.0 0.00 0.00 0.00 1012.8
20260906105013 0 0.0 0.0 0.00 0.00 0.00 1012.7
20260906103000 0 0.0 0.0 0.00 0.00 0.00 1012.5
20260906102412 0 0.0 0.0 0.00 0.00 0.00 1012.6
20260906101410 0 0.0 0.0 0.00 0.00 0.00 1012.3
20260906100407 0 0.0 0.0 0.00 0.00 0.00 1012.5
20260906095908 0 44 0.0 0.0 0.00 0.00 0.00 1012.5
20260906095404 77 44 0.0 0.0 0.00 0.00 0.00 72 1012.5
20260906094818 77 44 0.0 0.0 0.00 0.00 0.00 72 1012.5
20260906093820 78 101 0.0 0.0 0.00 0.00 0.00 73 1012.0
20260906093320 78 101 0.0 0.0 0.00 0.00 0.00 73 1011.9
20260906092819 78 65 0.0 0.0 0.00 0.00 0.00 73 1011.9
20260906092319 78 96 0.0 1.7 0.00 0.00 0.00 71 1011.7
20260906091819 78 88 0.0 1.7 0.00 0.00 0.00 70 1011.8
20260906091318 78 103 0.0 0.9 0.00 0.00 0.00 67 1011.8
20260906090823 78 113 0.0 0.0 0.00 0.00 0.00 66 1011.9
20260906090320 78 96 0.0 0.0 0.00 0.00 0.00 65 1012.0
20260906085818 78 91 0.0 0.0 0.00 0.00 0.00 64 1011.9
20260906085319 78 18 0.0 0.0 0.00 0.00 0.00 64 1012.0
20260906084819 78 18 0.0 0.0 0.00 0.00 0.00 63 1011.9
20260906084319 78 17 0.0 0.0 0.00 0.00 0.00 62 1011.6
20260906083820 78 108 0.0 0.0 0.00 0.00 0.00 61 1011.6
20260906083315 78 34 0.0 0.0 0.00 0.00 0.00 60 1011.7
20260906082815 78 217 0.0 0.0 0.00 0.00 0.00 59 1011.2
20260906082315 78 74 0.0 2.6 0.00 0.00 0.00 58 1011.6
20260906081315 77 68 0.0 0.0 0.00 0.00 0.00 60 1011.4
20260906080816 77 44 0.0 0.0 0.00 0.00 0.00 61 1011.3
20260906080315 78 230 0.0 0.0 0.00 0.00 0.00 62 1011.4
20260906075814 78 230 0.0 0.0 0.00 0.00 0.00 62 1011.1
20260906074815 78 230 0.0 0.0 0.00 0.00 0.00 63 1011.1
20260906074315 78 230 0.0 0.0 0.00 0.00 0.00 63 1011.1
20260906073815 78 230 0.0 0.0 0.00 0.00 0.00 63 1011.1
20260906073316 78 230 0.0 0.0 0.00 0.00 0.00 63 1011.2
20260906072816 78 230 0.0 0.0 0.00 0.00 0.00 64 1011.2
20260906072316 78 230 0.0 0.0 0.00 0.00 0.00 66 1011.2
20260906071811 78 230 0.0 0.0 0.00 0.00 0.00 66 1011.2
20260906070311 78 230 0.0 0.0 0.00 0.00 0.00 68 1011.2
20260906065810 78 230 0.0 0.0 0.00 0.00 0.00 69 1011.1
20260906065311 78 230 0.0 0.0 0.00 0.00 0.00 69 1011.0
20260906064811 78 230 0.0 0.0 0.00 0.00 0.00 70 1011.0
20260906064312 79 230 0.0 0.0 0.00 0.00 0.00 70 1010.9
20260906063807 79 230 0.0 0.0 0.00 0.00 0.00 70 1010.9
20260906063307 79 230 0.0 0.0 0.00 0.00 0.00 71 1011.0
20260906062307 79 230 0.0 0.0 0.00 0.00 0.00 72 1011.1
20260906061808 79 230 0.0 0.0 0.00 0.00 0.00 72 1011.1
20260906061308 79 230 0.0 0.0 0.00 0.00 0.00 73 1010.9
20260906060806 79 230 0.0 0.0 0.00 0.00 0.00 73 1010.8
20260906060308 79 230 0.0 0.0 0.00 0.00 0.00 73 1010.8
20260906055804 80 230 0.0 0.0 0.00 0.00 0.00 73 1010.8
20260906055306 80 227 0.0 0.0 0.00 0.00 0.00 73 1010.8
20260906054804 80 227 0.0 0.0 0.00 0.00 0.00 73 1010.8
20260906054304 80 221 0.0 0.0 0.00 0.00 0.00 73 1010.9
20260906053802 80 198 0.0 4.3 0.00 0.00 0.00 74 1010.9
20260906053304 80 209 0.0 4.3 0.00 0.00 0.00 74 1011.1
20260906052803 80 228 0.0 0.0 0.00 0.00 0.00 73 1011.0
20260906052305 80 86 0.0 0.0 0.00 0.00 0.00 73 1011.0
20260906051759 80 86 0.0 0.0 0.00 0.00 0.00 73 1011.1
20260906051300 80 86 0.0 0.0 0.00 0.00 0.00 73 1011.1
20260906050800 80 86 0.0 0.0 0.00 0.00 0.00 73 1011.1
20260906050259 80 86 0.0 0.0 0.00 0.00 0.00 74 1011.2
20260906045759 80 86 0.0 0.0 0.00 0.00 0.00 74 1011.3
20260906045258 80 86 0.0 0.0 0.00 0.00 0.00 74 1011.3
20260906044757 80 86 0.0 0.0 0.00 0.00 0.00 75 1011.4
20260906044258 80 86 0.0 0.0 0.00 0.00 0.00 75 1011.3
20260906043757 80 86 0.0 0.0 0.00 0.00 0.00 75 1011.4
20260906043257 80 86 0.0 0.0 0.00 0.00 0.00 75 1011.4
20260906042758 80 86 0.0 0.0 0.00 0.00 0.00 76 1011.5
20260906042257 81 249 0.0 0.0 0.00 0.00 0.00 76 1011.4
20260906041758 81 249 0.0 0.0 0.00 0.00 0.00 77 1011.2
20260906041258 81 249 0.0 0.0 0.00 0.00 0.00 77 1011.3
20260906040757 81 249 0.0 0.0 0.00 0.00 0.00 77 1011.3
20260906040257 81 249 0.0 0.0 0.00 0.00 0.00 77 1011.2
20260906035259 81 238 0.0 0.0 0.00 0.00 0.00 77 1011.2
20260906034757 81 238 0.0 0.0 0.00 0.00 0.00 77 1011.2
20260906034258 81 238 0.0 0.0 0.00 0.00 0.00 77 1011.2
20260906033258 82 238 0.0 0.0 0.00 0.00 0.00 77 1011.1
20260906032757 82 238 0.0 0.0 0.00 0.00 0.00 77 1011.1
20260906031757 82 238 0.0 0.0 0.00 0.00 0.00 77 1011.1
20260906031255 82 238 0.0 0.0 0.00 0.00 0.00 77 1011.1
20260906030255 83 238 0.0 0.0 0.00 0.00 0.00 76 1011.0
20260906025753 83 238 0.0 0.0 0.00 0.00 0.00 76 1010.9
20260906025255 83 238 0.0 0.0 0.00 0.00 0.00 75 1010.8
20260906024755 83 238 0.0 0.9 0.00 0.00 0.00 75 1010.8
20260906024253 84 238 0.0 0.9 0.00 0.00 0.00 75 1010.7
20260906023756 84 225 0.0 0.0 0.00 0.00 0.00 75 1010.7
20260906023253 85 244 0.0 0.0 0.00 0.00 0.00 74 1010.5
20260906022754 85 242 0.0 0.0 0.00 0.00 0.00 75 1010.5
20260906022253 85 242 0.0 0.0 0.00 0.00 0.00 73 1010.4
20260906021252 85 242 0.0 0.0 0.00 0.00 0.00 72 1010.4
20260906020752 85 242 0.0 0.0 0.00 0.00 0.00 72 1010.2
20260906020253 85 242 0.0 0.0 0.00 0.00 0.00 72 1010.1
20260906015750 85 242 0.0 0.0 0.00 0.00 0.00 71 1010.0
20260906015250 86 243 0.0 0.0 0.00 0.00 0.00 71 1010.0
20260906014247 86 243 0.0 0.0 0.00 0.00 0.00 72 1010.0
20260906013749 86 243 0.0 0.0 0.00 0.00 0.00 71 1010.0
20260906013246 86 243 0.0 0.0 0.00 0.00 0.00 71 1010.0
20260906012744 86 129 0.0 0.0 0.00 0.00 0.00 67 1010.0
20260906012246 86 129 0.0 0.0 0.00 0.00 0.00 68 1009.9
20260906011739 86 121 0.0 0.0 0.00 0.00 0.00 67 1009.9
20260906011239 87 121 0.0 0.0 0.00 0.00 0.00 66 1009.8
20260906010737 87 104 0.0 0.0 0.00 0.00 0.00 65 1009.7
20260906010237 88 104 0.0 0.0 0.00 0.00 0.00 64 1009.7
20260906005737 88 104 0.0 0.0 0.00 0.00 0.00 63 1009.6
20260906005237 89 104 0.0 0.0 0.00 0.00 0.00 62 1009.6
20260906004737 89 104 0.0 0.0 0.00 0.00 0.00 59 1009.4
20260906003736 90 104 0.0 0.0 0.00 0.00 0.00 59 1009.4
20260906003234 91 103 0.0 0.0 0.00 0.00 0.00 57 1009.3
20260906002736 91 104 0.0 0.0 0.00 0.00 0.00 57 1009.4
20260906002233 92 104 0.0 0.0 0.00 0.00 0.00 56 1009.4
20260906001731 92 104 0.0 0.0 0.00 0.00 0.00 55 1009.4
20260906000724 93 104 0.0 0.0 0.00 0.00 0.00 53 1009.4
20260906000226 94 103 0.0 0.0 0.00 0.00 0.00 52 1009.5
20260905235225 96 104 0.0 0.0 0.00 0.00 0.00 49 1009.5
20260905234727 97 103 0.0 0.0 0.00 0.00 0.00 49 1009.5
20260905234222 97 103 0.0 0.0 0.00 0.00 0.00 49 1009.5
20260905233720 97 104 0.0 0.0 0.00 0.00 0.00 48 1009.6
20260905232718 98 29 0.0 0.0 0.00 0.00 0.00 46 1009.5
20260905232218 98 29 0.0 0.0 0.00 0.00 0.00 45 1009.5
20260905231719 98 27 0.0 0.0 0.00 0.00 0.00 45 1009.5
20260905231216 97 92 0.0 0.0 0.00 0.00 0.00 46 1009.4
20260905230714 97 92 0.0 0.0 0.00 0.00 0.00 48 1009.4
20260905230214 97 11 0.0 0.0 0.00 0.00 0.00 46 1009.4
20260905225712 97 11 0.0 0.0 0.00 0.00 0.00 45 1009.4
20260905224713 98 37 0.0 0.0 0.00 0.00 0.00 43 1009.3
20260905224213 99 32 0.0 5.2 0.00 0.00 0.00 41 1009.3
20260905223712 101 48 0.0 5.2 0.00 0.00 0.00 41 1009.3
20260905223209 102 355 0.0 0.0 0.00 0.00 0.00 39 1009.4
20260905222709 102 125 0.0 0.0 0.00 0.00 0.00 41 1009.3
20260905221710 101 85 0.0 0.0 0.00 0.00 0.00 40 1009.5
20260905221211 101 55 0.0 0.0 0.00 0.00 0.00 40 1009.4
20260905220709 101 86 0.0 0.0 0.00 0.00 0.00 39 1009.5
20260905215709 102 125 0.0 0.0 0.00 0.00 0.00 40 1009.5
20260905215208 102 84 0.0 0.0 0.00 0.00 0.00 39 1009.6
20260905214709 102 130 0.0 0.0 0.00 0.00 0.00 39 1009.6
20260905214210 103 219 0.0 0.0 0.00 0.00 0.00 38 1009.6
20260905213705 102 104 0.0 0.0 0.00 0.00 0.00 37 1009.7
20260905213203 102 113 0.0 2.6 0.00 0.00 0.00 38 1009.7
20260905212700 101 206 0.9 5.2 0.00 0.00 0.00 40 1009.7
20260905211700 101 69 0.0 3.5 0.00 0.01 0.00 39 1009.9
20260905211200 100 203 0.0 0.0 0.00 0.01 0.00 40 1009.8
20260905210658 100 108 0.0 0.0 0.00 0.01 0.00 40 1009.8
20260905210157 101 104 0.0 0.0 0.00 0.03 0.00 39 1009.9
20260905205658 102 75 0.0 3.5 0.00 0.05 0.00 38 1010.1
20260905205150 102 58 0.0 3.5 0.00 0.10 0.00 39 1010.1
20260905204651 101 238 0.9 4.3 0.00 0.16 0.00 39 1010.2
20260905204152 101 74 0.0 4.3 0.00 0.31 0.00 38 1010.2
20260905203651 102 70 0.0 0.0 0.00 0.48 0.00 38 1010.3
20260905203152 103 90 0.0 0.9 0.00 0.50 0.00 39 1010.4
20260905202149 103 274 0.0 0.9 0.00 0.50 0.00 38 1010.4
20260905200645 102 88 0.0 0.9 0.00 0.50 0.00 38 1010.7
20260905200144 101 105 0.0 0.9 0.00 0.50 0.00 39 1010.8
20260905195645 101 100 0.9 7.0 0.00 0.50 0.00 39 1011.0
20260905195144 101 301 0.9 7.0 0.00 0.50 0.00 39 1011.1
20260905194643 101 27 0.9 7.0 0.00 0.50 0.00 40 1011.2
20260905194144 101 235 0.0 4.3 0.00 0.50 0.00 41 1011.3
20260905193642 101 115 0.0 4.3 0.00 0.50 0.00 41 1011.4
20260905193140 101 53 0.0 0.9 0.00 0.50 0.00 40 1011.4
20260905192639 102 10 0.0 0.0 0.00 0.50 0.00 39 1011.5
20260905192137 101 96 0.9 7.0 0.00 0.50 0.00 41 1011.6
20260905191637 101 70 0.9 7.0 0.00 0.50 0.00 40 1011.7
20260905191136 101 53 0.0 5.2 0.00 0.50 0.00 41 1011.9
20260905190635 101 23 0.0 0.0 0.00 0.50 0.00 41 1012.0
20260905190135 101 1 0.0 0.9 0.00 0.50 0.00 42 1012.0
20260905185634 100 121 0.0 0.9 0.00 0.50 0.00 42 1012.1
20260905185132 100 188 0.0 5.2 0.00 0.50 0.00 41 1012.1
20260905184634 101 29 0.0 6.1 0.00 0.50 0.00 40 1012.1
20260905184135 101 266 0.0 6.1 0.00 0.50 0.00 41 1012.1
20260905183631 100 80 0.0 4.3 0.00 0.50 0.00 43 1012.3
20260905183130 100 110 0.0 1.7 0.00 0.50 0.00 43 1012.4
20260905182630 100 138 0.0 1.7 0.00 0.50 0.00 45 1012.4
20260905182129 99 141 0.0 5.2 0.00 0.50 0.00 43 1012.4
20260905181629 99 86 1.7 7.0 0.00 0.50 0.00 44 1012.4
20260905181130 100 117 1.7 7.0 0.00 0.50 0.00 43 1012.5
20260905180627 101 74 0.9 3.5 0.00 0.50 0.00 42 1012.5
20260905180129 100 77 0.9 5.2 0.00 0.50 0.00 43 1012.6
20260905175123 99 55 0.9 4.3 0.00 0.50 0.00 43 1012.7
20260905174624 99 86 0.9 5.2 0.00 0.50 0.00 42 1012.7
20260905174125 99 86 0.9 5.2 0.00 0.50 0.00 44 1012.7
20260905173623 99 94 0.9 4.3 0.00 0.50 0.00 44 1012.7
20260905173123 98 83 0.9 4.3 0.00 0.50 0.00 46 1012.7
20260905172122 99 53 0.0 0.0 0.00 0.50 0.00 45 1012.8
20260905171622 98 132 0.0 0.0 0.00 0.50 0.00 47 1012.8
20260905171125 98 91 0.0 0.9 0.00 0.50 0.00 46 1013.0
20260905170611 97 101 0.0 0.9 0.00 0.50 0.00 47 1013.1
20260905170106 97 356 0.0 0.0 0.00 0.50 0.00 48 1013.2
20260905165103 96 17 0.9 3.5 0.00 0.50 0.00 51 1013.4
20260905164604 96 205 0.9 3.5 0.00 0.50 0.00 51 1013.5
20260905163604 95 354 0.9 2.6 0.00 0.50 0.00 53 1013.7
20260905163101 95 136 0.9 6.1 0.00 0.50 0.00 55 1013.8
20260905162600 94 78 0.9 6.1 0.00 0.50 0.00 57 1013.8
20260905162102 94 227 0.0 0.9 0.00 0.50 0.00 53 1013.8
20260905161558 94 236 0.0 0.9 0.00 0.50 0.00 54 1013.8
20260905161100 94 240 0.0 3.5 0.00 0.50 0.00 54 1013.9
20260905160600 94 185 0.9 4.3 0.00 0.50 0.00 56 1014.0
20260905160059 94 84 0.9 4.3 0.00 0.50 0.00 56 1014.0
20260905155559 94 236 0.0 1.7 0.00 0.50 0.00 56 1014.0
20260905154559 93 297 0.0 0.0 0.00 0.50 0.00 57 1014.1
20260905154100 93 315 0.0 0.0 0.00 0.50 0.00 57 1014.1
20260905153557 92 114 0.0 0.0 0.00 0.50 0.00 59 1014.2
20260905153057 92 99 0.0 0.9 0.00 0.50 0.00 60 1014.2
20260905152554 91 56 0.0 0.9 0.00 0.50 0.00 62 1014.2
20260905152055 91 272 0.0 0.9 0.00 0.50 0.00 63 1014.1
20260905151555 90 266 0.0 0.0 0.00 0.50 0.00 65 1014.2
20260905151057 89 289 0.0 0.0 0.00 0.50 0.00 66 1014.1
20260905150555 89 295 0.0 0.0 0.00 0.50 0.00 67 1014.2
20260905150056 88 36 0.0 0.0 0.00 0.50 0.00 67 1014.2
20260905145556 88 319 0.0 0.0 0.00 0.50 0.00 69 1014.2
20260905145053 88 240 0.0 0.0 0.00 0.50 0.00 69 1014.3
20260905144554 88 259 0.0 0.0 0.00 0.50 0.00 70 1014.3
20260905144047 87 225 0.0 0.0 0.00 0.50 0.00 71 1014.3
20260905143545 86 225 0.0 0.0 0.00 0.50 0.00 73 1014.3
20260905143041 86 235 0.0 0.0 0.00 0.50 0.00 74 1014.3
20260905142544 85 134 0.0 0.0 0.00 0.50 0.00 74 1014.3
20260905141539 85 228 0.0 0.0 0.00 0.50 0.00 77 1014.4
20260905141041 84 243 0.0 0.0 0.00 0.50 0.00 77 1014.4
20260905140537 83 236 0.0 2.6 0.00 0.50 0.00 78 1014.4
20260905140035 83 227 0.0 2.6 0.00 0.50 0.00 77 1014.5
20260905135533 83 195 0.0 0.0 0.00 0.50 0.00 77 1014.4
20260905135034 83 146 0.0 0.0 0.00 0.50 0.00 75 1014.4
20260905134533 83 271 0.0 0.0 0.00 0.50 0.00 69 1014.3
20260905134032 82 271 0.0 0.0 0.00 0.50 0.00 68 1014.5
20260905132531 80 245 0.0 0.0 0.00 0.50 0.00 52 1014.4
20260905132032 80 245 0.0 0.0 0.00 0.50 0.00 50 1014.5
20260905131531 79 245 0.0 0.0 0.00 0.50 0.00 49 1014.5
20260905131032 79 104 0.0 0.0 0.00 0.50 0.00 49 1014.5
20260905130028 78 103 0.0 0.0 0.00 0.50 0.00 49 1014.6
20260905125528 78 103 0.0 0.0 0.00 0.50 0.00 50 1014.6
20260905125026 77 103 0.0 0.0 0.00 0.50 0.00 50 1014.6
20260905124524 76 103 0.0 0.0 0.00 0.50 0.00 51 1014.5
20260905124024 75 103 0.0 0.0 0.00 0.50 0.00 51 1014.6
20260905123522 75 103 0.0 0.0 0.00 0.50 0.00 51 1014.6
20260905122524 74 103 0.0 0.0 0.00 0.50 0.00 51 1014.4
20260905122018 74 103 0.0 0.0 0.00 0.50 0.00 51 1014.4
20260905121515 74 103 0.0 0.0 0.00 0.50 0.00 51 1014.3
20260905120516 0 0.0 0.0 0.00 0.50 0.00 1014.2
20260905120011 0 0.0 0.0 0.00 0.50 0.00 1014.1
20260905115508 0 0.0 0.0 0.00 0.50 0.00 1014.1